Simultaneous Nadir Overpasses (SNOs) Predictions

Prediction of SNOs between AQUA and NPP Satellite Orbit:

Table of predicted SNOs for the next 14.0 days since TLE Epoch: 10/25/2025
Index Date (AQUA) Time (AQUA) Lat,Lon (AQUA) SZA (AQUA ) Date (NPP) Time (NPP) Lat,Lon (NPP) SZA (NPP ) Distance(km) Time Diff (sec)
1 10/25/2025 16:13:02 -81.25, 53.77 82.29 10/25/2025 16:12:07 -81.25, 53.66 82.25 1.85 55
2 10/25/2025 17:02:19 81.25,-138.62 97.73 10/25/2025 17:02:51 81.25,-138.70 97.72 1.34 32
3 10/28/2025 01:43:16 -81.24, -88.91 81.48 10/28/2025 01:43:04 -81.25, -88.86 81.48 1.12 12
4 10/30/2025 10:24:10 81.25, -38.93 99.27 10/30/2025 10:23:16 81.25, -38.78 99.27 2.54 54
5 10/30/2025 11:13:28 -81.25, 128.74 80.73 10/30/2025 11:14:01 -81.25, 128.57 80.72 2.88 33
6 11/01/2025 19:54:21 81.25, 178.66 100.01 11/01/2025 19:54:13 81.24, 178.60 100.02 1.39 8
7 11/04/2025 04:35:15 -81.24,-131.69 79.25 11/04/2025 04:34:26 -81.25,-131.74 79.22 1.05 49
8 11/04/2025 05:24:32 81.23, 35.83 100.78 11/04/2025 05:25:10 81.24, 35.92 100.75 1.88 38



Historial Predications of SNOs between AQUA and NPP
